| time (UTC) | temp C | wind direction | speed KPH | gust KPH | rain 1hr cm | rain 24hr cm | rain mn cm | humidity % | barometer mb |
| 20260510153431 | 8 | 302 | 22.5 | 37.0 | 0.00 | 0.18 | 0.00 | 65 | 1015.9 |
| 20260510152931 | 8 | 286 | 22.5 | 38.6 | 0.00 | 0.18 | 0.00 | 64 | 1015.7 |
| 20260510152430 | 8 | 277 | 25.7 | 41.8 | 0.00 | 0.18 | 0.00 | 65 | 1015.7 |
| 20260510151928 | 8 | 286 | 25.7 | 41.8 | 0.00 | 0.18 | 0.00 | 66 | 1015.7 |
| 20260510151426 | 8 | 250 | 27.4 | 48.3 | 0.00 | 0.18 | 0.00 | 66 | 1015.6 |
| 20260510151153 | 8 | 281 | 29.0 | 48.3 | 0.00 | 0.18 | 0.00 | 65 | 1015.6 |
| 20260510150426 | 8 | 337 | 29.0 | 45.1 | 0.00 | 0.18 | 0.00 | 65 | 1015.6 |
| 20260510150415 | 8 | 306 | 29.0 | 48.3 | 0.00 | 0.18 | 0.00 | 66 | 1015.1 |
| 20260510145424 | 8 | 289 | 29.0 | 48.3 | 0.00 | 0.18 | 0.00 | 66 | 1015.1 |
| 20260510144918 | 8 | 306 | 29.0 | 46.7 | 0.00 | 0.18 | 0.00 | 66 | 1015.1 |
| 20260510144413 | 8 | 303 | 30.6 | 45.1 | 0.00 | 0.18 | 0.00 | 66 | 1015.1 |
| 20260510144127 | 8 | 304 | 29.0 | 49.9 | 0.00 | 0.18 | 0.00 | 64 | 1015.1 |
| 20260510143355 | 8 | 299 | 33.8 | 49.9 | 0.00 | 0.18 | 0.00 | 65 | 1015.1 |
| 20260510143112 | 8 | 278 | 32.2 | 49.9 | 0.00 | 0.18 | 0.00 | 66 | 1014.7 |
| 20260510142601 | 8 | 304 | 25.7 | 49.9 | 0.00 | 0.18 | 0.00 | 65 | 1014.7 |
| 20260510141832 | 8 | 289 | 22.5 | 37.0 | 0.00 | 0.18 | 0.00 | 66 | 1014.7 |
| 20260510141330 | 7 | 311 | 24.1 | 41.8 | 0.00 | 0.18 | 0.00 | 65 | 1014.6 |
| 20260510141044 | 7 | 300 | 27.4 | 41.8 | 0.00 | 0.18 | 0.00 | 66 | 1014.6 |
| 20260510140318 | 7 | 301 | 25.7 | 40.2 | 0.00 | 0.18 | 0.00 | 65 | 1014.6 |
| 20260510135812 | 7 | 282 | 24.1 | 40.2 | 0.00 | 0.18 | 0.00 | 66 | 1014.6 |
| 20260510135306 | 7 | 296 | 22.5 | 35.4 | 0.00 | 0.18 | 0.00 | 66 | 1014.6 |
| 20260510135016 | 7 | 300 | 22.5 | 35.4 | 0.00 | 0.18 | 0.00 | 67 | 1014.6 |
| 20260510134258 | 6 | 286 | 19.3 | 33.8 | 0.00 | 0.18 | 0.00 | 68 | 1014.2 |
| 20260510133758 | 6 | 301 | 17.7 | 27.4 | 0.00 | 0.18 | 0.00 | 67 | 1014.2 |
| 20260510133258 | 6 | 308 | 20.9 | 32.2 | 0.00 | 0.18 | 0.00 | 69 | 1014.2 |
| 20260510133023 | 6 | 313 | 24.1 | 35.4 | 0.00 | 0.18 | 0.00 | 71 | 1014.0 |
| 20260510132258 | 6 | 282 | 22.5 | 35.4 | 0.00 | 0.18 | 0.00 | 68 | 1014.0 |
| 20260510131758 | 6 | 286 | 19.3 | 30.6 | 0.00 | 0.18 | 0.00 | 70 | 1014.0 |
| 20260510131256 | 6 | 310 | 22.5 | 37.0 | 0.00 | 0.18 | 0.00 | 70 | 1014.0 |
| 20260510130756 | 6 | 288 | 20.9 | 37.0 | 0.00 | 0.18 | 0.00 | 70 | 1014.0 |
| 20260510130500 | 5 | 325 | 20.9 | 37.0 | 0.00 | 0.18 | 0.00 | 71 | 1014.0 |
| 20260510130450 | 5 | 295 | 19.3 | 35.4 | 0.00 | 0.18 | 0.00 | 72 | 1014.0 |
| 20260510125256 | 5 | 281 | 22.5 | 38.6 | 0.00 | 0.18 | 0.00 | 71 | 1014.0 |
| 20260510124756 | 5 | 306 | 27.4 | 38.6 | 0.00 | 0.18 | 0.00 | 72 | 1014.0 |
| 20260510124525 | 5 | 319 | 24.1 | 37.0 | 0.00 | 0.18 | 0.00 | 73 | 1013.8 |
| 20260510124016 | 5 | 300 | 19.3 | 33.8 | 0.00 | 0.18 | 0.00 | 75 | 1013.8 |
| 20260510123248 | 4 | 288 | 17.7 | 29.0 | 0.00 | 0.18 | 0.00 | 75 | 1013.8 |
| 20260510122743 | 4 | 269 | 17.7 | 27.4 | 0.00 | 0.18 | 0.00 | 78 | 1013.7 |
| 20260510122237 | 4 | 300 | 17.7 | 27.4 | 0.00 | 0.18 | 0.00 | 79 | 1013.7 |
| 20260510121732 | 3 | 278 | 16.1 | 25.7 | 0.00 | 0.18 | 0.00 | 78 | 1013.7 |
| 20260510121220 | 3 | 302 | 14.5 | 24.1 | 0.00 | 0.18 | 0.00 | 80 | 1013.6 |
| 20260510120713 | 3 | 293 | 12.9 | 20.9 | 0.00 | 0.18 | 0.00 | 80 | 1013.6 |
| 20260510120212 | 3 | 281 | 11.3 | 19.3 | 0.00 | 0.18 | 0.00 | 82 | 1013.6 |
| 20260510115706 | 2 | 266 | 11.3 | 19.3 | 0.00 | 0.18 | 0.00 | 82 | 1013.5 |
| 20260510115200 | 2 | 256 | 11.3 | 17.7 | 0.00 | 0.18 | 0.00 | 82 | 1013.5 |
| 20260510114914 | 2 | 261 | 9.7 | 17.7 | 0.00 | 0.18 | 0.00 | 83 | 1013.5 |
| 20260510114148 | 2 | 248 | 9.7 | 14.5 | 0.00 | 0.18 | 0.00 | 84 | 1013.3 |
| 20260510113637 | 2 | 238 | 9.7 | 17.7 | 0.00 | 0.18 | 0.00 | 84 | 1013.3 |
| 20260510113134 | 2 | 248 | 11.3 | 17.7 | 0.00 | 0.18 | 0.00 | 84 | 1013.3 |
| 20260510112628 | 2 | 265 | 11.3 | 16.1 | 0.00 | 0.18 | 0.00 | 84 | 1013.0 |
| 20260510112117 | 2 | 254 | 9.7 | 16.1 | 0.00 | 0.18 | 0.00 | 85 | 1013.0 |
| 20260510111616 | 1 | 248 | 9.7 | 14.5 | 0.00 | 0.18 | 0.00 | 85 | 1012.7 |
| 20260510111106 | 1 | 244 | 9.7 | 14.5 | 0.00 | 0.18 | 0.00 | 85 | 1012.7 |
| 20260510110604 | 1 | 252 | 11.3 | 14.5 | 0.00 | 0.18 | 0.00 | 85 | 1012.7 |
| 20260510110319 | 1 | 252 | 9.7 | 14.5 | 0.00 | 0.18 | 0.00 | 85 | 1012.4 |
| 20260510105550 | 1 | 248 | 9.7 | 12.9 | 0.00 | 0.18 | 0.00 | 85 | 1012.4 |
| 20260510105039 | 1 | 236 | 8.0 | 11.3 | 0.00 | 0.18 | 0.00 | 85 | 1012.4 |
| 20260510104538 | 1 | 248 | 8.0 | 11.3 | 0.00 | 0.18 | 0.00 | 85 | 1012.3 |
| 20260510104027 | 1 | 243 | 8.0 | 11.3 | 0.00 | 0.18 | 0.00 | 85 | 1012.3 |
| 20260510103749 | 1 | 256 | 9.7 | 14.5 | 0.00 | 0.18 | 0.00 | 85 | 1012.3 |
| 20260510103016 | 1 | 255 | 11.3 | 16.1 | 0.00 | 0.18 | 0.00 | 85 | 1011.9 |
| 20260510102511 | 1 | 266 | 11.3 | 20.9 | 0.00 | 0.18 | 0.00 | 84 | 1011.9 |
| 20260510101957 | 1 | 275 | 11.3 | 20.9 | 0.00 | 0.18 | 0.00 | 84 | 1011.9 |
| 20260510101456 | 1 | 256 | 9.7 | 16.1 | 0.00 | 0.18 | 0.00 | 84 | 1011.5 |
| 20260510100945 | 1 | 269 | 11.3 | 16.1 | 0.00 | 0.18 | 0.00 | 84 | 1011.5 |
| 20260510100444 | 1 | 283 | 11.3 | 16.1 | 0.00 | 0.18 | 0.00 | 84 | 1011.5 |
| 20260510095933 | 1 | 269 | 11.3 | 17.7 | 0.00 | 0.18 | 0.00 | 84 | 1011.3 |
| 20260510095432 | 1 | 261 | 11.3 | 17.7 | 0.00 | 0.18 | 0.00 | 84 | 1011.3 |
| 20260510094927 | 1 | 269 | 11.3 | 17.7 | 0.00 | 0.18 | 0.00 | 84 | 1011.3 |
| 20260510094415 | 1 | 256 | 11.3 | 20.9 | 0.00 | 0.18 | 0.00 | 83 | 1011.0 |
| 20260510093914 | 1 | 277 | 14.5 | 20.9 | 0.00 | 0.18 | 0.00 | 84 | 1011.0 |
| 20260510093408 | 1 | 296 | 14.5 | 19.3 | 0.00 | 0.18 | 0.00 | 84 | 1011.0 |
| 20260510093346 | 1 | 284 | 12.9 | 17.7 | 0.00 | 0.18 | 0.00 | 83 | 1010.8 |
| 20260510092352 | 1 | 298 | 11.3 | 16.1 | 0.00 | 0.18 | 0.00 | 83 | 1010.8 |
| 20260510091848 | 1 | 286 | 9.7 | 17.7 | 0.00 | 0.18 | 0.00 | 83 | 1010.8 |
| 20260510091338 | 1 | 306 | 11.3 | 17.7 | 0.00 | 0.18 | 0.00 | 83 | 1010.7 |
| 20260510090836 | 1 | 270 | 11.3 | 16.1 | 0.00 | 0.18 | 0.00 | 83 | 1010.7 |
| 20260510090326 | 1 | 296 | 12.9 | 16.1 | 0.00 | 0.18 | 0.00 | 84 | 1010.7 |
| 20260510085823 | 1 | 301 | 12.9 | 16.1 | 0.00 | 0.18 | 0.00 | 84 | 1010.4 |
| 20260510085317 | 1 | 297 | 12.9 | 20.9 | 0.00 | 0.18 | 0.00 | 83 | 1010.4 |
| 20260510085022 | 1 | 293 | 14.5 | 20.9 | 0.00 | 0.18 | 0.00 | 83 | 1010.4 |
| 20260510084304 | 1 | 304 | 12.9 | 17.7 | 0.00 | 0.18 | 0.00 | 83 | 1010.3 |
| 20260510083750 | 1 | 292 | 11.3 | 17.7 | 0.00 | 0.18 | 0.00 | 84 | 1010.3 |
| 20260510083248 | 1 | 284 | 9.7 | 17.7 | 0.00 | 0.18 | 0.00 | 84 | 1010.3 |
| 20260510082742 | 1 | 269 | 8.0 | 12.9 | 0.00 | 0.18 | 0.00 | 85 | 1010.2 |
| 20260510082459 | 1 | 277 | 8.0 | 12.9 | 0.00 | 0.18 | 0.00 | 84 | 1010.2 |
| 20260510081725 | 1 | 265 | 8.0 | 14.5 | 0.00 | 0.18 | 0.00 | 84 | 1010.2 |
| 20260510081220 | 1 | 275 | 8.0 | 14.5 | 0.00 | 0.18 | 0.00 | 84 | 1010.2 |
| 20260510080721 | 1 | 265 | 8.0 | 12.9 | 0.00 | 0.18 | 0.00 | 83 | 1010.2 |
| 20260510080208 | 1 | 267 | 9.7 | 12.9 | 0.00 | 0.18 | 0.00 | 84 | 1010.2 |
| 20260510075706 | 1 | 279 | 9.7 | 14.5 | 0.00 | 0.18 | 0.00 | 84 | 1009.8 |
| 20260510075155 | 1 | 288 | 9.7 | 12.9 | 0.00 | 0.18 | 0.00 | 83 | 1009.8 |
| 20260510074922 | 1 | 293 | 8.0 | 12.9 | 0.00 | 0.18 | 0.00 | 82 | 1009.8 |
| 20260510074148 | 2 | 294 | 8.0 | 11.3 | 0.00 | 0.18 | 0.00 | 82 | 1009.7 |
| 20260510073638 | 2 | 286 | 8.0 | 11.3 | 0.00 | 0.18 | 0.00 | 81 | 1009.7 |
| 20260510073136 | 2 | 297 | 9.7 | 12.9 | 0.00 | 0.18 | 0.00 | 81 | 1009.7 |
| 20260510072626 | 2 | 313 | 9.7 | 14.5 | 0.00 | 0.18 | 0.00 | 81 | 1009.6 |
| 20260510072124 | 2 | 317 | 11.3 | 14.5 | 0.00 | 0.18 | 0.00 | 81 | 1009.6 |
| 20260510071614 | 2 | 312 | 11.3 | 14.5 | 0.00 | 0.18 | 0.00 | 81 | 1009.6 |
| 20260510071111 | 2 | 298 | 12.9 | 17.7 | 0.00 | 0.18 | 0.00 | 80 | 1009.5 |
| 20260510070606 | 2 | 308 | 14.5 | 17.7 | 0.00 | 0.18 | 0.00 | 81 | 1009.5 |
| 20260510070055 | 2 | 308 | 14.5 | 19.3 | 0.00 | 0.18 | 0.00 | 80 | 1009.6 |
| 20260510065554 | 2 | 320 | 14.5 | 20.9 | 0.00 | 0.18 | 0.00 | 80 | 1009.6 |
| 20260510065043 | 2 | 308 | 14.5 | 20.9 | 0.00 | 0.18 | 0.00 | 80 | 1009.6 |
| 20260510064542 | 2 | 321 | 14.5 | 20.9 | 0.00 | 0.18 | 0.00 | 80 | 1009.4 |
| 20260510064036 | 2 | 322 | 14.5 | 20.9 | 0.00 | 0.18 | 0.00 | 80 | 1009.4 |
| 20260510063530 | 2 | 316 | 16.1 | 20.9 | 0.00 | 0.18 | 0.00 | 80 | 1009.4 |
| 20260510063247 | 2 | 326 | 16.1 | 27.4 | 0.00 | 0.18 | 0.00 | 80 | 1009.4 |
| 20260510062518 | 3 | 319 | 17.7 | 27.4 | 0.00 | 0.18 | 0.00 | 80 | 1009.4 |
| 20260510062018 | 3 | 300 | 16.1 | 20.9 | 0.00 | 0.18 | 0.00 | 80 | 1009.4 |
| 20260510061518 | 3 | 317 | 14.5 | 20.9 | 0.00 | 0.18 | 0.00 | 79 | 1009.3 |
| 20260510061018 | 3 | 313 | 14.5 | 20.9 | 0.00 | 0.18 | 0.00 | 79 | 1009.3 |
| 20260510060518 | 3 | 314 | 12.9 | 16.1 | 0.00 | 0.18 | 0.00 | 78 | 1009.3 |
| 20260510060243 | 3 | 315 | 12.9 | 16.1 | 0.00 | 0.18 | 0.00 | 78 | 1009.3 |
| 20260510055511 | 3 | 313 | 14.5 | 19.3 | 0.00 | 0.18 | 0.00 | 78 | 1009.3 |
| 20260510055006 | 3 | 307 | 14.5 | 19.3 | 0.00 | 0.18 | 0.00 | 78 | 1009.3 |
| 20260510054455 | 3 | 290 | 14.5 | 20.9 | 0.00 | 0.18 | 0.00 | 78 | 1009.2 |
| 20260510054435 | 3 | 315 | 14.5 | 20.9 | 0.00 | 0.18 | 0.00 | 78 | 1009.2 |
| 20260510053448 | 3 | 302 | 12.9 | 17.7 | 0.00 | 0.18 | 0.00 | 78 | 1009.2 |
| 20260510052938 | 3 | 316 | 11.3 | 16.1 | 0.00 | 0.18 | 0.00 | 78 | 1009.2 |
| 20260510052657 | 3 | 319 | 12.9 | 17.7 | 0.00 | 0.18 | 0.00 | 77 | 1009.2 |
| 20260510051930 | 3 | 307 | 12.9 | 17.7 | 0.00 | 0.18 | 0.00 | 77 | 1009.2 |
| 20260510051430 | 3 | 301 | 12.9 | 17.7 | 0.00 | 0.18 | 0.00 | 77 | 1008.8 |
| 20260510050930 | 4 | 338 | 12.9 | 16.1 | 0.00 | 0.18 | 0.00 | 76 | 1008.8 |
| 20260510050430 | 4 | 333 | 12.9 | 22.5 | 0.00 | 0.18 | 0.00 | 76 | 1008.8 |
| 20260510045930 | 4 | 335 | 14.5 | 24.1 | 0.00 | 0.18 | 0.00 | 76 | 1008.7 |
| 20260510045430 | 4 | 323 | 16.1 | 30.6 | 0.00 | 0.18 | 0.00 | 76 | 1008.7 |
| 20260510044930 | 5 | 341 | 14.5 | 30.6 | 0.00 | 0.18 | 0.00 | 75 | 1008.7 |
| 20260510044430 | 5 | 334 | 14.5 | 27.4 | 0.00 | 0.18 | 0.00 | 76 | 1008.7 |
| 20260510043929 | 5 | 336 | 16.1 | 27.4 | 0.00 | 0.18 | 0.00 | 76 | 1008.7 |
| 20260510043429 | 5 | 330 | 17.7 | 29.0 | 0.00 | 0.18 | 0.00 | 76 | 1008.7 |
| 20260510042930 | 5 | 326 | 16.1 | 29.0 | 0.00 | 0.18 | 0.00 | 75 | 1008.5 |
| 20260510042430 | 5 | 333 | 17.7 | 29.0 | 0.00 | 0.18 | 0.00 | 75 | 1008.5 |
| 20260510041930 | 5 | 330 | 20.9 | 32.2 | 0.00 | 0.18 | 0.00 | 75 | 1008.5 |
| 20260510041430 | 5 | 323 | 19.3 | 32.2 | 0.00 | 0.18 | 0.00 | 75 | 1008.1 |
| 20260510041147 | 6 | 319 | 16.1 | 27.4 | 0.00 | 0.18 | 0.00 | 74 | 1008.1 |
| 20260510040649 | 6 | 315 | 14.5 | 27.4 | 0.00 | 0.18 | 0.00 | 75 | 1008.1 |
| 20260510035927 | 6 | 325 | 17.7 | 29.0 | 0.00 | 0.18 | 0.18 | 74 | 1007.9 |
| 20260510035421 | 6 | 323 | 17.7 | 29.0 | 0.00 | 0.18 | 0.18 | 74 | 1007.9 |
| 20260510035127 | 6 | 311 | 14.5 | 29.0 | 0.00 | 0.18 | 0.18 | 72 | 1007.9 |
| 20260510034405 | 6 | 339 | 14.5 | 22.5 | 0.00 | 0.18 | 0.18 | 72 | 1007.6 |
| 20260510033856 | 6 | 332 | 12.9 | 24.1 | 0.00 | 0.18 | 0.18 | 71 | 1007.6 |
| 20260510033357 | 6 | 349 | 14.5 | 29.0 | 0.00 | 0.18 | 0.18 | 71 | 1007.6 |
| 20260510032856 | 6 | 319 | 16.1 | 29.0 | 0.00 | 0.18 | 0.18 | 69 | 1007.3 |
| 20260510032355 | 7 | 330 | 19.3 | 37.0 | 0.00 | 0.18 | 0.18 | 69 | 1007.3 |
| 20260510032112 | 7 | 359 | 20.9 | 37.0 | 0.00 | 0.18 | 0.18 | 69 | 1007.3 |
| 20260510031354 | 7 | 325 | 19.3 | 33.8 | 0.00 | 0.18 | 0.18 | 68 | 1007.0 |
| 20260510030854 | 7 | 321 | 16.1 | 27.4 | 0.00 | 0.18 | 0.18 | 68 | 1007.0 |
| 20260510030618 | 7 | 323 | 16.1 | 30.6 | 0.00 | 0.18 | 0.18 | 68 | 1007.0 |
| 20260510025855 | 7 | 329 | 17.7 | 30.6 | 0.00 | 0.18 | 0.18 | 68 | 1007.1 |
| 20260510025354 | 7 | 342 | 14.5 | 27.4 | 0.00 | 0.18 | 0.18 | 69 | 1007.1 |
| 20260510024855 | 7 | 315 | 12.9 | 25.7 | 0.00 | 0.18 | 0.18 | 70 | 1007.1 |
| 20260510024354 | 7 | 313 | 12.9 | 22.5 | 0.00 | 0.18 | 0.18 | 70 | 1006.5 |
| 20260510024121 | 7 | 331 | 11.3 | 22.5 | 0.00 | 0.18 | 0.18 | 70 | 1006.5 |
| 20260510023355 | 7 | 333 | 11.3 | 19.3 | 0.00 | 0.18 | 0.18 | 70 | 1006.5 |
| 20260510022854 | 7 | 0 | 12.9 | 19.3 | 0.00 | 0.18 | 0.18 | 70 | 1006.5 |
| 20260510022352 | 7 | 349 | 12.9 | 19.3 | 0.00 | 0.18 | 0.18 | 70 | 1006.5 |
| 20260510021852 | 7 | 1 | 11.3 | 17.7 | 0.00 | 0.18 | 0.18 | 70 | 1006.5 |
| 20260510021341 | 7 | 348 | 9.7 | 17.7 | 0.00 | 0.18 | 0.18 | 70 | 1006.4 |
| 20260510020836 | 7 | 336 | 9.7 | 17.7 | 0.00 | 0.18 | 0.18 | 70 | 1006.4 |
| 20260510020334 | 7 | 5 | 12.9 | 22.5 | 0.00 | 0.18 | 0.18 | 71 | 1006.4 |
| 20260510015828 | 7 | 1 | 14.5 | 22.5 | 0.00 | 0.18 | 0.18 | 70 | 1006.1 |
| 20260510015322 | 7 | 354 | 16.1 | 22.5 | 0.00 | 0.18 | 0.18 | 70 | 1006.1 |
| 20260510015034 | 8 | 356 | 16.1 | 25.7 | 0.00 | 0.18 | 0.18 | 69 | 1006.1 |
| 20260510014306 | 8 | 346 | 17.7 | 29.0 | 0.00 | 0.18 | 0.18 | 70 | 1005.9 |
| 20260510013759 | 8 | 337 | 17.7 | 29.0 | 0.00 | 0.18 | 0.18 | 70 | 1005.9 |
| 20260510013258 | 8 | 349 | 19.3 | 32.2 | 0.00 | 0.18 | 0.18 | 69 | 1005.9 |
| 20260510012752 | 8 | 316 | 19.3 | 32.2 | 0.00 | 0.18 | 0.18 | 69 | 1005.4 |
| 20260510012246 | 8 | 329 | 16.1 | 29.0 | 0.00 | 0.18 | 0.18 | 70 | 1005.4 |
| 20260510011740 | 8 | 343 | 14.5 | 22.5 | 0.00 | 0.18 | 0.18 | 69 | 1005.4 |
| 20260510011451 | 8 | 336 | 16.1 | 25.7 | 0.00 | 0.18 | 0.18 | 70 | 1005.3 |
| 20260510010724 | 8 | 346 | 16.1 | 25.7 | 0.00 | 0.18 | 0.18 | 70 | 1005.3 |
| 20260510010218 | 8 | 327 | 14.5 | 25.7 | 0.00 | 0.18 | 0.18 | 71 | 1005.3 |
| 20260510005937 | 8 | 342 | 12.9 | 24.1 | 0.00 | 0.18 | 0.18 | 70 | 1004.8 |
| 20260510005205 | 9 | 320 | 12.9 | 19.3 | 0.00 | 0.18 | 0.18 | 71 | 1004.8 |
| 20260510004706 | 9 | 345 | 16.1 | 27.4 | 0.00 | 0.18 | 0.18 | 70 | 1004.8 |
| 20260510004158 | 9 | 325 | 17.7 | 29.0 | 0.00 | 0.18 | 0.18 | 69 | 1004.4 |
| 20260510003652 | 9 | 343 | 19.3 | 38.6 | 0.00 | 0.18 | 0.18 | 69 | 1004.4 |
| 20260510003406 | 10 | 324 | 24.1 | 38.6 | 0.00 | 0.18 | 0.18 | 69 | 1004.4 |
| 20260510002634 | 10 | 325 | 24.1 | 41.8 | 0.00 | 0.18 | 0.18 | 69 | 1004.1 |
| 20260510002133 | 10 | 354 | 20.9 | 41.8 | 0.00 | 0.18 | 0.18 | 71 | 1004.1 |
| 20260510001633 | 11 | 338 | 20.9 | 38.6 | 0.00 | 0.18 | 0.18 | 71 | 1004.1 |
| 20260510001132 | 11 | 324 | 27.4 | 40.2 | 0.00 | 0.18 | 0.18 | 71 | 1003.7 |
| 20260510000630 | 11 | 348 | 30.6 | 53.1 | 0.00 | 0.18 | 0.18 | 70 | 1003.7 |
| 20260510000358 | 12 | 317 | 30.6 | 53.1 | 0.00 | 0.18 | 0.18 | 69 | 1003.7 |
| 20260509235850 | 12 | 343 | 33.8 | 51.5 | 0.00 | 0.18 | 0.18 | 69 | 1002.9 |
| 20260509235130 | 12 | 321 | 33.8 | 51.5 | 0.00 | 0.18 | 0.18 | 69 | 1002.9 |
| 20260509234630 | 12 | 302 | 29.0 | 51.5 | 0.00 | 0.18 | 0.18 | 69 | 1002.9 |
| 20260509234130 | 12 | 331 | 29.0 | 43.5 | 0.00 | 0.18 | 0.18 | 68 | 1002.2 |
| 20260509233853 | 12 | 299 | 29.0 | 43.5 | 0.00 | 0.18 | 0.18 | 68 | 1002.2 |
| 20260509233130 | 12 | 318 | 30.6 | 43.5 | 0.00 | 0.18 | 0.18 | 68 | 1002.2 |
| 20260509232901 | 12 | 315 | 30.6 | 43.5 | 0.00 | 0.18 | 0.18 | 67 | 1002.1 |
| 20260509232130 | 13 | 311 | 29.0 | 45.1 | 0.00 | 0.18 | 0.18 | 68 | 1002.1 |
| 20260509231630 | 13 | 292 | 32.2 | 45.1 | 0.00 | 0.18 | 0.18 | 69 | 1002.1 |
| 20260509231130 | 13 | 293 | 33.8 | 59.5 | 0.00 | 0.18 | 0.18 | 69 | 1002.1 |
| 20260509230630 | 13 | 284 | 30.6 | 59.5 | 0.00 | 0.18 | 0.18 | 68 | 1002.1 |
| 20260509230130 | 13 | 284 | 29.0 | 43.5 | 0.00 | 0.18 | 0.18 | 69 | 1001.3 |
| 20260509225558 | 13 | 275 | 32.2 | 48.3 | 0.00 | 0.18 | 0.18 | 70 | 1002.1 |
| 20260509225324 | 13 | 296 | 33.8 | 54.7 | 0.00 | 0.18 | 0.18 | 69 | 1002.1 |
| 20260509224554 | 13 | 287 | 33.8 | 54.7 | 0.00 | 0.18 | 0.18 | 71 | 1002.0 |
| 20260509224314 | 13 | 278 | 29.0 | 48.3 | 0.00 | 0.18 | 0.18 | 72 | 1002.0 |
| 20260509223552 | 13 | 296 | 22.5 | 48.3 | 0.00 | 0.18 | 0.18 | 74 | 1002.0 |
| 20260509223041 | 13 | 299 | 20.9 | 35.4 | 0.00 | 0.18 | 0.18 | 74 | 1001.7 |
| 20260509222537 | 13 | 283 | 22.5 | 40.2 | 0.00 | 0.18 | 0.18 | 74 | 1001.7 |
| 20260509222035 | 13 | 288 | 24.1 | 40.2 | 0.00 | 0.18 | 0.18 | 73 | 1001.7 |
| 20260509221524 | 13 | 265 | 24.1 | 40.2 | 0.00 | 0.18 | 0.18 | 75 | 1001.6 |
| 20260509221238 | 13 | 310 | 22.5 | 41.8 | 0.00 | 0.18 | 0.18 | 75 | 1001.6 |
| 20260509220505 | 13 | 279 | 20.9 | 40.2 | 0.00 | 0.18 | 0.18 | 75 | 1001.6 |
| 20260509220004 | 13 | 269 | 27.4 | 46.7 | 0.00 | 0.18 | 0.18 | 75 | 1001.4 |
| 20260509215719 | 13 | 273 | 30.6 | 46.7 | 0.00 | 0.18 | 0.18 | 73 | 1001.4 |
| 20260509214947 | 13 | 276 | 32.2 | 49.9 | 0.00 | 0.18 | 0.18 | 75 | 1001.4 |
| 20260509214447 | 13 | 265 | 32.2 | 49.9 | 0.00 | 0.18 | 0.18 | 74 | 1001.3 |
| 20260509213940 | 13 | 307 | 27.4 | 49.9 | 0.00 | 0.18 | 0.18 | 75 | 1001.3 |
| 20260509213654 | 13 | 302 | 20.9 | 41.8 | 0.00 | 0.18 | 0.18 | 78 | 1001.3 |
| 20260509212928 | 13 | 313 | 16.1 | 29.0 | 0.00 | 0.18 | 0.18 | 84 | 1001.2 |
| 20260509212645 | 13 | 268 | 14.5 | 22.5 | 0.00 | 0.18 | 0.18 | 86 | 1001.2 |
| 20260509211916 | 13 | 269 | 14.5 | 22.5 | 0.00 | 0.18 | 0.18 | 85 | 1001.2 |
| 20260509211405 | 13 | 244 | 14.5 | 19.3 | 0.00 | 0.18 | 0.18 | 86 | 1001.2 |
| 20260509210859 | 13 | 199 | 16.1 | 22.5 | 0.00 | 0.18 | 0.18 | 85 | 1001.2 |
| 20260509210356 | 13 | 229 | 16.1 | 22.5 | 0.00 | 0.18 | 0.18 | 88 | 1001.2 |
| 20260509210112 | 13 | 205 | 17.7 | 22.5 | 0.03 | 0.18 | 0.18 | 88 | 1001.4 |
| 20260509205604 | 13 | 195 | 17.7 | 29.0 | 0.15 | 0.18 | 0.18 | 89 | 1001.4 |
| 20260509204830 | 13 | 205 | 19.3 | 24.1 | 0.18 | 0.18 | 0.18 | 91 | 1001.4 |
| 20260509204329 | 12 | 186 | 19.3 | 29.0 | 0.18 | 0.18 | 0.18 | 90 | 1001.3 |
| 20260509203822 | 12 | 205 | 17.7 | 29.0 | 0.18 | 0.18 | 0.18 | 89 | 1001.3 |
| 20260509203317 | 12 | 189 | 14.5 | 22.5 | 0.18 | 0.18 | 0.18 | 91 | 1001.3 |
| 20260509202806 | 12 | 215 | 14.5 | 22.5 | 0.18 | 0.18 | 0.18 | 91 | 1001.3 |
| 20260509202259 | 12 | 215 | 17.7 | 24.1 | 0.18 | 0.18 | 0.18 | 93 | 1001.3 |
| 20260509201758 | 11 | 215 | 20.9 | 33.8 | 0.18 | 0.18 | 0.18 | 91 | 1001.3 |
| 20260509201736 | 11 | 221 | 24.1 | 35.4 | 0.18 | 0.18 | 0.18 | 90 | 1001.2 |
| 20260509200746 | 11 | 226 | 27.4 | 40.2 | 0.18 | 0.18 | 0.18 | 89 | 1001.2 |
| 20260509200240 | 11 | 254 | 32.2 | 51.5 | 0.15 | 0.15 | 0.18 | 87 | 1001.2 |
| 20260509195734 | 12 | 267 | 27.4 | 51.5 | 0.15 | 0.15 | 0.15 | 83 | 999.4 |
| 20260509195228 | 14 | 299 | 20.9 | 48.3 | 0.03 | 0.03 | 0.03 | 81 | 999.4 |
| 20260509194941 | 15 | 184 | 22.5 | 35.4 | 0.00 | 0.00 | 0.00 | 78 | 999.4 |
| 20260509194216 | 15 | 167 | 25.7 | 38.6 | 0.00 | 0.00 | 0.00 | 76 | 1000.0 |
| 20260509193928 | 15 | 163 | 29.0 | 38.6 | 0.00 | 0.00 | 0.00 | 74 | 1000.0 |
| 20260509193158 | 15 | 177 | 27.4 | 43.5 | 0.00 | 0.00 | 0.00 | 74 | 1000.0 |
| 20260509192653 | 16 | 153 | 27.4 | 43.5 | 0.00 | 0.00 | 0.00 | 72 | 999.5 |
| 20260509192148 | 16 | 180 | 27.4 | 41.8 | 0.00 | 0.00 | 0.00 | 71 | 999.5 |
| 20260509191637 | 17 | 155 | 27.4 | 45.1 | 0.00 | 0.00 | 0.00 | 70 | 999.5 |
| 20260509191136 | 17 | 146 | 27.4 | 45.1 | 0.00 | 0.00 | 0.00 | 69 | 1000.2 |
| 20260509190625 | 17 | 163 | 30.6 | 46.7 | 0.00 | 0.00 | 0.00 | 71 | 1000.2 |
| 20260509190124 | 16 | 176 | 33.8 | 49.9 | 0.00 | 0.00 | 0.00 | 72 | 1000.2 |
| 20260509185618 | 16 | 205 | 33.8 | 49.9 | 0.00 | 0.00 | 0.00 | 71 | 1000.4 |
| 20260509185111 | 16 | 186 | 32.2 | 51.5 | 0.00 | 0.00 | 0.00 | 68 | 1000.4 |
| 20260509184606 | 17 | 188 | 32.2 | 51.5 | 0.00 | 0.00 | 0.00 | 65 | 1000.2 |
| 20260509184055 | 17 | 181 | 29.0 | 43.5 | 0.00 | 0.00 | 0.00 | 61 | 1000.2 |
| 20260509183554 | 18 | 173 | 32.2 | 46.7 | 0.00 | 0.00 | 0.00 | 62 | 1000.2 |
| 20260509183043 | 17 | 147 | 33.8 | 46.7 | 0.00 | 0.00 | 0.00 | 65 | 1000.5 |
| 20260509182541 | 17 | 132 | 29.0 | 46.7 | 0.00 | 0.00 | 0.00 | 65 | 1000.5 |
| 20260509182036 | 16 | 177 | 27.4 | 41.8 | 0.00 | 0.00 | 0.00 | 63 | 1000.5 |
| 20260509181525 | 16 | 184 | 29.0 | 41.8 | 0.00 | 0.00 | 0.00 | 64 | 1001.0 |
| 20260509181024 | 16 | 179 | 30.6 | 46.7 | 0.00 | 0.00 | 0.00 | 63 | 1001.0 |
| 20260509180518 | 15 | 185 | 37.0 | 56.3 | 0.00 | 0.00 | 0.00 | 62 | 1001.0 |
| 20260509180013 | 15 | 177 | 38.6 | 56.3 | 0.00 | 0.00 | 0.00 | 61 | 1001.0 |
| 20260509175501 | 16 | 161 | 37.0 | 53.1 | 0.00 | 0.00 | 0.00 | 62 | 1001.0 |
| 20260509174956 | 16 | 205 | 38.6 | 61.2 | 0.00 | 0.00 | 0.00 | 59 | 1001.0 |
| 20260509174454 | 16 | 210 | 40.2 | 61.2 | 0.00 | 0.00 | 0.00 | 55 | 1001.1 |
| 20260509173947 | 17 | 184 | 35.4 | 56.3 | 0.00 | 0.00 | 0.00 | 58 | 1001.1 |
| 20260509173443 | 16 | 159 | 30.6 | 51.5 | 0.00 | 0.00 | 0.00 | 67 | 1001.1 |
| 20260509172936 | 16 | 192 | 24.1 | 43.5 | 0.00 | 0.00 | 0.00 | 66 | 1001.1 |
| 20260509172430 | 15 | 189 | 22.5 | 41.8 | 0.00 | 0.00 | 0.00 | 68 | 1001.1 |
| 20260509171919 | 15 | 179 | 24.1 | 41.8 | 0.00 | 0.00 | 0.00 | 69 | 1001.1 |
| 20260509171413 | 15 | 170 | 25.7 | 41.8 | 0.00 | 0.00 | 0.00 | 73 | 1001.3 |
| 20260509170912 | 14 | 154 | 29.0 | 43.5 | 0.00 | 0.00 | 0.00 | 76 | 1001.3 |
| 20260509170628 | 14 | 205 | 27.4 | 43.5 | 0.00 | 0.00 | 0.00 | 72 | 1001.3 |
| 20260509165901 | 15 | 152 | 30.6 | 43.5 | 0.00 | 0.00 | 0.00 | 70 | 1001.6 |
| 20260509165355 | 15 | 177 | 30.6 | 46.7 | 0.00 | 0.00 | 0.00 | 69 | 1001.6 |
| 20260509164843 | 15 | 184 | 25.7 | 46.7 | 0.00 | 0.00 | 0.00 | 70 | 1001.6 |
| 20260509164338 | 15 | 170 | 27.4 | 38.6 | 0.00 | 0.00 | 0.00 | 67 | 1001.6 |
| 20260509163836 | 16 | 179 | 30.6 | 40.2 | 0.00 | 0.00 | 0.00 | 69 | 1001.6 |
| 20260509163331 | 16 | 155 | 29.0 | 41.8 | 0.00 | 0.00 | 0.00 | 70 | 1001.6 |
| 20260509162824 | 16 | 163 | 25.7 | 41.8 | 0.00 | 0.00 | 0.00 | 73 | 1001.8 |
| 20260509162318 | 15 | 173 | 25.7 | 43.5 | 0.00 | 0.00 | 0.00 | 73 | 1001.8 |
| 20260509162029 | 14 | 162 | 27.4 | 43.5 | 0.00 | 0.00 | 0.00 | 76 | 1001.8 |
| 20260509161301 | 15 | 163 | 25.7 | 45.1 | 0.00 | 0.00 | 0.00 | 73 | 1002.8 |
| 20260509160756 | 15 | 154 | 27.4 | 45.1 | 0.00 | 0.00 | 0.00 | 71 | 1002.8 |
| 20260509160254 | 15 | 165 | 27.4 | 40.2 | 0.00 | 0.00 | 0.00 | 72 | 1002.8 |
| 20260509155743 | 15 | 157 | 22.5 | 40.2 | 0.00 | 0.00 | 0.00 | 74 | 1002.8 |
| 20260509155505 | 15 | 156 | 20.9 | 33.8 | 0.00 | 0.00 | 0.00 | 72 | 1002.8 |
| 20260509154731 | 15 | 159 | 22.5 | 33.8 | 0.00 | 0.00 | 0.00 | 74 | 1002.8 |
| 20260509154230 | 15 | 165 | 24.1 | 33.8 | 0.00 | 0.00 | 0.00 | 77 | 1003.4 |